| time (UTC) | temp F | wind direction | speed MPH | gust MPH | rain 1hr in | rain 24hr in | rain mn in | humidity % | barometer mb |
| 20260902124510 | 77 | 163 | 0.0 | 1.0 | 0.00 | 0.00 | 0.00 | 67 | 1017.1 |
| 20260902123030 | 77 | 160 | 0.0 | 1.0 | 0.00 | 0.00 | 0.00 | 67 | 1017.0 |
| 20260902121533 | 77 | 160 | 0.0 | 1.0 | 0.00 | 0.00 | 0.00 | 66 | 1016.7 |
| 20260902120035 | 78 | 113 | 0.0 | 1.0 | 0.00 | 0.00 | 0.00 | 65 | 1016.6 |
| 20260902114537 | 79 | 159 | 0.0 | 0.0 | 0.00 | 0.00 | 0.00 | 64 | 1016.5 |
| 20260902113016 | 79 | 172 | 0.0 | 1.0 | 0.00 | 0.00 | 0.00 | 62 | 1016.5 |
| 20260902111512 | 80 | 181 | 1.0 | 3.0 | 0.00 | 0.00 | 0.00 | 62 | 1016.6 |
| 20260902110017 | 80 | 166 | 0.0 | 3.0 | 0.00 | 0.00 | 0.00 | 61 | 1016.5 |
| 20260902104533 | 81 | 174 | 0.0 | 1.0 | 0.00 | 0.00 | 0.00 | 61 | 1016.6 |
| 20260902103031 | 81 | 171 | 0.0 | 2.0 | 0.00 | 0.00 | 0.00 | 60 | 1016.6 |
| 20260902101533 | 81 | 198 | 1.0 | 3.0 | 0.00 | 0.00 | 0.00 | 60 | 1016.5 |
| 20260902100034 | 81 | 153 | 0.0 | 3.0 | 0.00 | 0.00 | 0.00 | 59 | 1016.5 |
| 20260902094534 | 82 | 165 | 0.0 | 4.0 | 0.00 | 0.00 | 0.00 | 58 | 1016.5 |
| 20260902093038 | 82 | 198 | 1.0 | 3.0 | 0.00 | 0.00 | 0.00 | 58 | 1016.4 |
| 20260902091531 | 81 | 156 | 1.0 | 2.0 | 0.00 | 0.00 | 0.00 | 58 | 1016.5 |
| 20260902090033 | 81 | 159 | 0.0 | 0.0 | 0.00 | 0.00 | 0.00 | 58 | 1016.5 |
| 20260902084537 | 81 | 107 | 0.0 | 2.0 | 0.00 | 0.00 | 0.00 | 57 | 1016.6 |
| 20260902083029 | 81 | 166 | 0.0 | 2.0 | 0.00 | 0.00 | 0.00 | 57 | 1016.5 |
| 20260902081530 | 81 | 99 | 1.0 | 4.0 | 0.00 | 0.00 | 0.00 | 57 | 1016.5 |
| 20260902080034 | 81 | 116 | 0.0 | 3.0 | 0.00 | 0.00 | 0.00 | 57 | 1016.5 |
| 20260902074540 | 81 | 143 | 0.0 | 2.0 | 0.00 | 0.00 | 0.00 | 56 | 1016.6 |
| 20260902073020 | 81 | 113 | 0.0 | 2.0 | 0.00 | 0.00 | 0.00 | 55 | 1016.6 |
| 20260902071504 | 81 | 181 | 0.0 | 3.0 | 0.00 | 0.00 | 0.00 | 55 | 1016.7 |
| 20260902070008 | 81 | 141 | 0.0 | 2.0 | 0.00 | 0.00 | 0.00 | 54 | 1016.8 |
| 20260902064520 | 81 | 155 | 1.0 | 3.0 | 0.00 | 0.00 | 0.00 | 53 | 1016.7 |
| 20260902063017 | 81 | 110 | 1.0 | 2.0 | 0.00 | 0.00 | 0.00 | 53 | 1016.5 |
| 20260902061522 | 82 | 109 | 0.0 | 2.0 | 0.00 | 0.00 | 0.00 | 53 | 1016.5 |
| 20260902060026 | 82 | 89 | 0.0 | 3.0 | 0.00 | 0.00 | 0.00 | 53 | 1016.4 |
| 20260902054514 | 82 | 103 | 0.0 | 2.0 | 0.00 | 0.00 | 0.00 | 52 | 1016.3 |
| 20260902053010 | 83 | 110 | 0.0 | 2.0 | 0.00 | 0.00 | 0.00 | 50 | 1016.4 |
| 20260902051521 | 84 | 222 | 0.0 | 2.0 | 0.00 | 0.00 | 0.00 | 50 | 1016.4 |
| 20260902050030 | 84 | 140 | 0.0 | 3.0 | 0.00 | 0.00 | 0.00 | 48 | 1016.4 |
| 20260902044512 | 84 | 148 | 2.0 | 4.0 | 0.00 | 0.00 | 0.00 | 48 | 1016.5 |
| 20260902043007 | 85 | 69 | 1.0 | 4.0 | 0.00 | 0.00 | 0.00 | 46 | 1016.6 |
| 20260902041546 | 85 | 108 | 1.0 | 4.0 | 0.00 | 0.00 | 0.00 | 45 | 1016.5 |
| 20260902040024 | 85 | 148 | 1.0 | 4.0 | 0.00 | 0.00 | 0.00 | 44 | 1016.3 |
| 20260902034526 | 86 | 110 | 1.0 | 4.0 | 0.00 | 0.00 | 0.00 | 43 | 1016.4 |
| 20260902033028 | 86 | 103 | 1.0 | 2.0 | 0.00 | 0.00 | 0.00 | 42 | 1016.1 |
| 20260902031530 | 87 | 117 | 1.0 | 3.0 | 0.00 | 0.00 | 0.00 | 41 | 1016.0 |
| 20260902030014 | 87 | 115 | 1.0 | 3.0 | 0.00 | 0.00 | 0.00 | 40 | 1015.7 |
| 20260902024520 | 88 | 156 | 0.0 | 3.0 | 0.00 | 0.00 | 0.00 | 38 | 1015.5 |
| 20260902023038 | 89 | 101 | 0.0 | 3.0 | 0.00 | 0.00 | 0.00 | 37 | 1015.2 |
| 20260902021528 | 89 | 128 | 1.0 | 3.0 | 0.00 | 0.00 | 0.00 | 35 | 1015.0 |
| 20260902020011 | 90 | 127 | 0.0 | 3.0 | 0.00 | 0.00 | 0.00 | 34 | 1014.7 |
| 20260902014533 | 90 | 119 | 0.0 | 3.0 | 0.00 | 0.00 | 0.00 | 33 | 1014.5 |
| 20260902013036 | 91 | 106 | 0.0 | 3.0 | 0.00 | 0.00 | 0.00 | 32 | 1014.4 |
| 20260902011528 | 92 | 129 | 0.0 | 2.0 | 0.00 | 0.00 | 0.00 | 32 | 1014.3 |
| 20260902010045 | 93 | 106 | 0.0 | 3.0 | 0.00 | 0.00 | 0.00 | 31 | 1014.2 |
| 20260902004525 | 94 | 138 | 1.0 | 9.0 | 0.00 | 0.00 | 0.00 | 30 | 1014.1 |
| 20260902003050 | 95 | 93 | 2.0 | 6.0 | 0.00 | 0.00 | 0.00 | 28 | 1014.3 |
| 20260902001530 | 96 | 113 | 1.0 | 6.0 | 0.00 | 0.00 | 0.00 | 28 | 1014.3 |
| 20260902000035 | 97 | 94 | 3.0 | 8.0 | 0.00 | 0.00 | 0.00 | 27 | 1014.1 |
| 20260901234530 | 97 | 102 | 1.0 | 6.0 | 0.00 | 0.00 | 0.00 | 27 | 1014.3 |
| 20260901233016 | 98 | 130 | 2.0 | 4.0 | 0.00 | 0.00 | 0.00 | 26 | 1014.3 |
| 20260901231521 | 98 | 113 | 0.0 | 5.0 | 0.00 | 0.00 | 0.00 | 27 | 1014.1 |
| 20260901230026 | 100 | 79 | 2.0 | 3.0 | 0.00 | 0.00 | 0.00 | 25 | 1014.2 |
| 20260901224530 | 99 | 258 | 2.0 | 6.0 | 0.00 | 0.00 | 0.00 | 25 | 1014.2 |
| 20260901223008 | 101 | 286 | 1.0 | 4.0 | 0.00 | 0.00 | 0.00 | 24 | 1014.3 |
| 20260901221514 | 99 | 79 | 0.0 | 4.0 | 0.00 | 0.00 | 0.00 | 27 | 1014.4 |
| 20260901220027 | 100 | 214 | 2.0 | 6.0 | 0.00 | 0.00 | 0.00 | 26 | 1014.5 |
| 20260901214504 | 99 | 148 | 2.0 | 4.0 | 0.00 | 0.00 | 0.00 | 25 | 1014.6 |
| 20260901213009 | 101 | 287 | 2.0 | 4.0 | 0.00 | 0.00 | 0.00 | 26 | 1014.8 |
| 20260901211512 | 101 | 86 | 2.0 | 6.0 | 0.00 | 0.00 | 0.00 | 26 | 1015.1 |
| 20260901210018 | 100 | 208 | 1.0 | 4.0 | 0.00 | 0.00 | 0.00 | 27 | 1015.2 |
| 20260901204517 | 100 | 72 | 2.0 | 6.0 | 0.00 | 0.00 | 0.00 | 27 | 1015.4 |
| 20260901203018 | 100 | 84 | 2.0 | 4.0 | 0.00 | 0.00 | 0.00 | 27 | 1015.7 |
| 20260901201516 | 98 | 285 | 1.0 | 6.0 | 0.00 | 0.00 | 0.00 | 29 | 1015.9 |
| 20260901200010 | 99 | 205 | 1.0 | 4.0 | 0.00 | 0.00 | 0.00 | 28 | 1016.2 |
| 20260901194517 | 99 | 169 | 2.0 | 9.0 | 0.00 | 0.00 | 0.00 | 28 | 1016.4 |
| 20260901193016 | 98 | 124 | 4.0 | 9.0 | 0.00 | 0.00 | 0.00 | 28 | 1016.4 |
| 20260901191504 | 97 | 72 | 3.0 | 11.0 | 0.00 | 0.00 | 0.00 | 29 | 1016.6 |
| 20260901190013 | 98 | 153 | 2.0 | 6.0 | 0.00 | 0.00 | 0.00 | 29 | 1016.8 |
| 20260901184514 | 99 | 79 | 1.0 | 6.0 | 0.00 | 0.00 | 0.00 | 29 | 1017.0 |
| 20260901183020 | 98 | 150 | 2.0 | 5.0 | 0.00 | 0.00 | 0.00 | 28 | 1017.2 |
| 20260901181525 | 98 | 120 | 2.0 | 6.0 | 0.00 | 0.00 | 0.00 | 29 | 1017.4 |
| 20260901180031 | 96 | 108 | 3.0 | 7.0 | 0.00 | 0.00 | 0.00 | 31 | 1017.6 |
| 20260901174509 | 97 | 30 | 2.0 | 5.0 | 0.00 | 0.00 | 0.00 | 33 | 1017.8 |
| 20260901173013 | 97 | 181 | 2.0 | 4.0 | 0.00 | 0.00 | 0.00 | 33 | 1018.1 |
| 20260901171526 | 96 | 170 | 1.0 | 4.0 | 0.00 | 0.00 | 0.00 | 37 | 1018.1 |
| 20260901170026 | 95 | 170 | 2.0 | 6.0 | 0.00 | 0.00 | 0.00 | 37 | 1018.4 |
| 20260901164527 | 94 | 185 | 2.0 | 6.0 | 0.00 | 0.00 | 0.00 | 40 | 1018.4 |
| 20260901163011 | 93 | 143 | 2.0 | 6.0 | 0.00 | 0.00 | 0.00 | 40 | 1018.4 |
| 20260901161519 | 93 | 141 | 3.0 | 7.0 | 0.00 | 0.00 | 0.00 | 42 | 1018.6 |
| 20260901160021 | 92 | 153 | 2.0 | 7.0 | 0.00 | 0.00 | 0.00 | 44 | 1018.5 |
| 20260901154534 | 90 | 263 | 1.0 | 6.0 | 0.00 | 0.00 | 0.00 | 46 | 1018.5 |
| 20260901153037 | 90 | 115 | 2.0 | 7.0 | 0.00 | 0.00 | 0.00 | 46 | 1018.4 |
| 20260901151514 | 88 | 243 | 2.0 | 8.0 | 0.00 | 0.00 | 0.00 | 49 | 1018.5 |
| 20260901150015 | 88 | 219 | 1.0 | 3.0 | 0.00 | 0.00 | 0.00 | 50 | 1018.5 |
| 20260901144522 | 86 | 243 | 1.0 | 4.0 | 0.00 | 0.00 | 0.00 | 52 | 1018.6 |
| 20260901143028 | 85 | 157 | 2.0 | 4.0 | 0.00 | 0.00 | 0.00 | 53 | 1018.6 |
| 20260901141530 | 84 | 249 | 1.0 | 4.0 | 0.00 | 0.00 | 0.00 | 55 | 1018.7 |
| 20260901140018 | 83 | 165 | 0.0 | 4.0 | 0.00 | 0.00 | 0.00 | 57 | 1018.8 |
| 20260901134520 | 82 | 150 | 1.0 | 4.0 | 0.00 | 0.00 | 0.00 | 59 | 1018.6 |
| 20260901133024 | 80 | 203 | 2.0 | 4.0 | 0.00 | 0.00 | 0.00 | 61 | 1018.8 |
| 20260901131528 | 79 | 162 | 2.0 | 3.0 | 0.00 | 0.00 | 0.00 | 63 | 1018.6 |
| 20260901130031 | 79 | 162 | 0.0 | 3.0 | 0.00 | 0.00 | 0.00 | 64 | 1018.4 |